sat.trackr.live / text

‹ back to catalog

STARLINK-31551

NORAD 59191 · 2024-045P

PAYLOAD ACTIVE UNKNOWN

§ Identity

Operator
Country
US
Launch date
2024-03-10
Launch site
AFETR
Launch vehicle
Mass (kg)
RCS (m²)

Purposes: comms

External: N2YO · Heavens-Above · Gunter

§ Orbital elements

Epoch: 2026-05-24T22:02:43.038816Z

Period
94.27 min
Inclination
43.0026°
Eccentricity
0.0001322
Mean motion
15.27589993 rev/d
Perigee alt
482.1 km
Apogee alt
483.9 km
Semi-major
6,861.2 km
B*
-1.9832e-5
RAAN
18.2604°
Arg perigee
247.9375°
Mean anomaly
112.1336°
Rev number
12,486

§ Raw data

STARLINK-315511 59191U 24045P   26144.91855369 -.00000808  00000+0 -19832-4 0  99972 59191  43.0026  18.2604 0001322 247.9375 112.1336 15.27589993124864

JSON: /api/v1/satellites/59191 · /tle

For live sub-satellite position, see the globe view (requires WebGL).

§ Visibility from observer

Set your observer location to see the next 7 days of passes ≥ 10°. The values pass through the URL so the page stays shareable.

No JS? Fill the form by hand. The geolocation button needs JavaScript.